TimeSAST,TemperatureF,Dew PointF,Humidity,Sea Level PressureIn,VisibilityMPH,Wind Direction,Wind SpeedMPH,Gust SpeedMPH,PrecipitationIn,Events,Conditions,WindDirDegrees,DateUTC
12:00 AM,50.0,8.6,19,30.18,-9999.0,SSW,2.3,-,N/A,,Unknown,210,2012-09-30 22:00:00
1:00 AM,53.6,14.0,21,30.15,-9999.0,ENE,6.9,-,N/A,,Unknown,70,2012-09-30 23:00:00
2:00 AM,51,11,10,,,ENE,4.6,,,,,60,2012-10-01 00:00:00
2:00 AM,50.0,12.2,22,30.15,-9999.0,ENE,4.6,-,N/A,,Unknown,60,2012-10-01 00:00:00
3:00 AM,50.0,15.8,26,30.12,-9999.0,ENE,6.9,-,N/A,,Unknown,70,2012-10-01 01:00:00
4:00 AM,50.0,15.8,26,30.12,-9999.0,ENE,4.6,-,N/A,,Unknown,70,2012-10-01 02:00:00
5:00 AM,51,13,11,,25,NE,2.3,,,,,50,2012-10-01 03:00:00
5:00 AM,50.0,14.0,24,30.15,-9999.0,NE,2.3,-,N/A,,Clear,50,2012-10-01 03:00:00
6:00 AM,53.6,12.2,19,30.15,-9999.0,ENE,1.2,-,N/A,,Clear,60,2012-10-01 04:00:00
7:00 AM,53.6,12.2,19,30.18,-9999.0,NNE,5.8,-,N/A,,Clear,30,2012-10-01 05:00:00
7:08 AM,57.2,14.0,18,30.18,-9999.0,NNE,4.6,-,N/A,,Clear,30,2012-10-01 05:08:00
7:32 AM,62.6,12.2,14,30.18,-9999.0,ENE,4.6,-,N/A,,Clear,60,2012-10-01 05:32:00
8:00 AM,68,11,4,,25,ENE,4.6,,,,Clear,70,2012-10-01 06:00:00
8:00 AM,66.2,12.2,12,30.21,-9999.0,ENE,4.6,-,N/A,,Clear,70,2012-10-01 06:00:00
8:16 AM,71.6,14.0,11,30.18,-9999.0,ENE,6.9,-,N/A,,Clear,70,2012-10-01 06:16:00
9:00 AM,77.0,12.2,9,30.18,-9999.0,ENE,4.6,-,N/A,,Clear,60,2012-10-01 07:00:00
9:39 AM,82.4,14.0,8,30.18,-9999.0,NNE,6.9,-,N/A,,Clear,30,2012-10-01 07:39:00
10:00 AM,86.0,12.2,6,30.18,-9999.0,NNE,5.8,-,N/A,,Clear,20,2012-10-01 08:00:00
11:00 AM,89,10,4,,25,NW,11.5,,,,,320,2012-10-01 09:00:00
11:00 AM,87.8,10.4,6,30.18,-9999.0,NW,10.4,-,N/A,,Clear,320,2012-10-01 09:00:00
12:00 PM,91.4,8.6,5,30.15,-9999.0,NNW,12.7,-,N/A,,Clear,330,2012-10-01 10:00:00
1:00 PM,91.4,6.8,4,30.12,-9999.0,NW,12.7,-,N/A,,Clear,320,2012-10-01 11:00:00
2:00 PM,94,9,4,,25,NNW,11.5,,,,,330,2012-10-01 12:00:00
2:00 PM,93.2,8.6,4,30.09,-9999.0,NNW,10.4,-,N/A,,Clear,330,2012-10-01 12:00:00
3:00 PM,93.2,8.6,4,30.06,-9999.0,NW,10.4,-,N/A,,Clear,310,2012-10-01 13:00:00
4:00 PM,95.0,10.4,4,30.06,-9999.0,WNW,10.4,-,N/A,,Clear,300,2012-10-01 14:00:00
5:00 PM,94,8,4,,25,WNW,9.2,,,,,290,2012-10-01 15:00:00
5:00 PM,93.2,8.6,4,30.06,-9999.0,WNW,8.1,-,N/A,,Clear,290,2012-10-01 15:00:00
6:00 PM,91.4,8.6,5,30.06,-9999.0,NW,4.6,-,N/A,,Clear,320,2012-10-01 16:00:00
7:00 PM,78.8,12.2,8,30.06,-9999.0,NW,5.8,-,N/A,,Clear,320,2012-10-01 17:00:00
8:00 PM,71,10,4,,25,NW,8.1,,,,Clear,310,2012-10-01 18:00:00
8:00 PM,69.8,10.4,10,30.06,-9999.0,NW,6.9,-,N/A,,Clear,310,2012-10-01 18:00:00
9:00 PM,64.4,8.6,11,30.09,-9999.0,NW,3.5,-,N/A,,Unknown,320,2012-10-01 19:00:00
10:00 PM,66.2,10.4,11,30.09,-9999.0,North,6.9,-,N/A,,Unknown,10,2012-10-01 20:00:00
11:00 PM,65,9,4,,,ENE,3.5,,,,,70,2012-10-01 21:00:00
11:00 PM,64.4,10.4,12,30.09,-9999.0,ENE,2.3,-,N/A,,Unknown,70,2012-10-01 21:00:00